TITAN 3C TRANSTAGE DEB, 3978

Orbit data source: Space-Track

TITAN 3C TRANSTAGE DEB, 3978 is space debris in LEO originally from a launch on Fri, 15 Oct 1965 UTC launched from the Air Force Eastern Test Range (AFETR). Debris objects in space refer to the collection of defunct objects orbiting the Earth. Examples of debris include non-operational satellites, rocket bodies, and fragments generated from explosions, collisions, or faulty payload assembly.

Loading next visibility...
Identifier
3978, 1965-082SE
Orbit
LEO
Country
Flag of USUS
Related business
Manufacturer
Unknown
Mission
Spacecraft
Bus & Motor
Unknown
Mass
Unknown
Launch date (UTC)
1965-10-15 (61 years ago)
Launch vehicle
Unknown
Launch site
Air Force Eastern Test Range (AFETR)
Object type
Payload
Rocket body
Debris
Shape & HBR
Unknown shape, 0.1 m
Radar Cross Section
Medium (>0.1 m² and <1 m²)

Expand to show TLE details & history
Last TLE update: 1 day ago

TLE from 1 day ago
0 TITAN 3C TRANSTAGE DEB
1  3978U 65082SE  26171.32301786  .00000465  00000-0  69747-4 0  9997
2  3978  32.5633 252.7602 0033955 354.8422   5.1881 14.70472814447374
Epoch: 2026-06-20T07:45Z
TLE epoch observation values (Epoch: 2026-06-20T07:45:08.743Z)
Latitude
0.00003°
Longitude
-132.06547°
Altitude
634.455 km
Speed
7.556 km/s
True Right ascension
16h 51m 02s
True Declination
0° 00' 00"
Sunlit
Object was in full shadow at epoch
Visualization orbit readout
Latitude
Unknown
Longitude
Unknown
Altitude
Unknown
Speed
Unknown
Apparent Right ascension
Unknown
Apparent Declination
Unknown
Sunlit
N/A
Visualization observer readout
Local Sidereal Time
05:33:07
Azimuth
Unknown
Elevation
Unknown
Doppler factor
Unknown
Orbital elements
Apogee altitude
687.012 km
Perigee altitude
639.195 km
Semi-major axis
7,041.24 km
Eccentricity
0.0034
Inclination
32.5633°
RAAN
252.7602°
Arg. of periapsis
354.8422°
True anomaly
5.22343°
Mean anomaly
5.1881°
Eccentric anomaly
5.20575°
Mean motion
3.67341 °/min
Orbital period
98 mins
BSTAR
0.000069747

Documentation

Showing up to 5 results
|